Hourly Data Report for September 13, 2017

All times are specified in Local Standard Time (LST). Add 1 hour to adjust for Daylight Saving Time where and when it is observed.

ST. STEPHEN
NEW BRUNSWICK

45°12'36.600" N
67°15'10.300" W
26.10 m
8104935
71607
WSS

Download Data

Hourly Data (September 2017)
Hourly Data Report for September 13, 2017
Temp Definition
°C
Dew Point Temp Definition
°C
Rel Hum Definition
%
Wind Dir Definition
10's deg

Wind Spd Definition
km/h
Visibility Definition
km
Stn Press Definition
kPa
Hmdx Definition


Wind Chill Definition


Weather Definition


TIME
00:00 14.5 10.6 77 31 3   100.45     LegendNANA
01:00 13.6 10.4 81 32 5   100.47     LegendNANA
02:00 13.6 11.1 85 30 4   100.46     LegendNANA
03:00 13.0 10.8 86 30 2   100.47     LegendNANA
04:00 11.5 9.6 89 28 2   100.47     LegendNANA
05:00 10.4 9.2 92 25 4   100.50     LegendNANA
06:00 9.6 8.7 94 27 4   100.56     LegendNANA
07:00 11.2 10.3 94 28 2   100.62     LegendNANA
08:00 15.0 11.1 77 27 2   100.64     LegendNANA
09:00 19.0 12.6 66 27 7   100.66     LegendNANA
10:00 22.1 13.6 58 30 4   100.63 25   LegendNANA
11:00 23.5 13.6 54 26 8   100.59 27   LegendNANA
12:00 25.2 12.6 45 25 9   100.55 28   LegendNANA
13:00 25.9 11.8 41 26 14   100.51 28   LegendNANA
14:00 26.5 11.2 38 26 12   100.47 28   LegendNANA
15:00 27.4 11.2 36 25 11   100.43 29   LegendNANA
16:00 27.0 9.9 34 24 13   100.41 28   LegendNANA
17:00 26.7 10.1 35 25 11   100.41 28   LegendNANA
18:00 25.7 11.5 41 25 7   100.42 28   LegendNANA
19:00 19.8 13.7 68 0 1   100.45     LegendNANA
20:00 16.9 13.4 80   0   100.51     LegendNANA
21:00 15.2 13.1 88   0   100.51     LegendNANA
22:00 14.6 12.9 90 25 2   100.50     LegendNANA
23:00 14.0 12.7 92   0   100.50     LegendNANA

Notes on Data Quality.

Legend

  • E = Estimated
  • M = Missing
  • NA = Not Available
  • ‡ = Partner data that is not subject to review by the National Climate Archives
Date modified: